Terug naar catalogus

CRRES DEB

CANISTER

ActiefHEO
NORAD 20469·DEBRIS·🇺🇸 United States

Gelanceerd Jul 25, 1990 vanaf Cape Canaveral Space Force Station

Loading…

Volgende Passages (komende 24 uur)

TLE

VersSource: Space-Track

Epoch: Sep 12, 2026, 19:11 UTC

1 20469U 90065T   26255.79938897  .00001253  00000-0  63719-3 0  9991
2 20469  17.4735 186.2176 6922952  92.6188 341.4063  2.71067167287207

Volg CRRES DEB in realtime met AllMySat

Download on the App Store